This demonstration page uses our WeatherBlox Daily Observations layout. Learn more.

Left ArrowRight Arrow

Hourly Observations for August 15, 2021

Temp ( °F °C ) Dew Point ( °F °C ) Humidity (%) Winds ( mph kmh ) Pressure ( in mb ) Visibility ( mi km ) Precip ( " mm )
12:54 am 00:54 Clear 70 21.1 58 14.4 66 66 SE 5 7 30.15 1021 10 16 0.00 0.00
1:54 am 01:54 Clear 69 20.6 58 14.4 68 68 SW 3 6 30.14 1021 10 16 0.00 0.00
2:54 am 02:54 Clear 66 18.9 58 14.4 75 75 Calm 30.13 1020 10 16 0.00 0.00
3:54 am 03:54 Mostly Cloudy 62 16.7 57 13.9 84 84 NE 3 6 30.12 1020 10 16 0.00 0.00
4:54 am 04:54 Clear 66 18.9 58 14.4 75 75 Calm 30.12 1020 10 16 0.00 0.00
5:54 am 05:54 Mostly Cloudy 65 18.3 58 14.4 78 78 SW 3 6 30.13 1020 10 16 0.00 0.00
6:54 am 06:54 Mostly Cloudy 64 17.8 59 15 84 84 SSE 8 13 30.14 1021 10 16 0.00 0.00
7:54 am 07:54 Sunny 68 20 60 15.6 76 76 S 6 9 30.14 1021 10 16 0.00 0.00
8:54 am 08:54 Mostly Sunny 71 21.7 61 16.1 71 71 S 6 9 30.13 1020 10 16 0.00 0.00
9:54 am 09:54 Mostly Sunny 76 24.4 62 16.7 62 62 S 9 15 30.11 1020 10 16 0.00 0.00
10:54 am 10:54 Sunny 80 26.7 61 16.1 52 52 S 13 20 30.10 1019 10 16 0.00 0.00
11:54 am 11:54 Mostly Cloudy 83 28.3 61 16.1 48 48 S 15 24 30.09 1019 10 16 0.00 0.00
12:54 pm 12:54 Mostly Cloudy 84 28.9 62 16.7 48 48 SSE 9 15 30.08 1019 10 16 0.00 0.00
1:54 pm 13:54 Partly Cloudy 86 30 62 16.7 45 45 SSE 10 17 30.05 1018 10 16 0.00 0.00
2:54 pm 14:54 Partly Cloudy 87 30.6 64 17.8 46 46 SE 15 24 30.04 1017 10 16 0.00 0.00
3:54 pm 15:54 Mostly Sunny 87 30.6 62 16.7 43 43 SSE 10 17 30.02 1017 10 16 0.00 0.00
4:54 pm 16:54 Mostly Sunny 87 30.6 62 16.7 43 43 SE 13 20 30.01 1016 10 16 0.00 0.00
5:54 pm 17:54 Partly Cloudy 86 30 61 16.1 43 43 S 12 19 29.99 1016 10 16 0.00 0.00
6:54 pm 18:54 Sunny 84 28.9 60 15.6 44 44 SSE 16 26 30.00 1016 10 16 0.00 0.00
7:54 pm 19:54 Sunny 82 27.8 60 15.6 47 47 SSE 12 19 29.99 1016 10 16 0.00 0.00
8:54 pm 20:54 Clear 79 26.1 62 16.7 56 56 SE 10 17 29.99 1016 10 16 0.00 0.00
9:54 pm 21:54 Clear 76 24.4 63 17.2 64 64 SE 9 15 30.01 1016 10 16 0.00 0.00
10:54 pm 22:54 Clear 76 24.4 63 17.2 64 64 SE 10 17 30.01 1016 10 16 0.00 0.00
11:54 pm 23:54 Clear 74 23.3 62 16.7 67 67 SE 10 17 30.01 1016 10 16 0.00 0.00

Powered by AerisWeather